I1GXV Weather Reports


Display with metric or nautical units.
time (UTC)temp
F
wind
direction
speed
MPH
gust
MPH
rain 1hr
in
rain 24hr
in
rain mn
in
humidity
%
barometer
mb
20260507223009 53 53 0.0 3.0 0.00 0.26 0.00 89 988.6
20260507220011 54 73 0.0 0.0 0.00 0.27 0.00 89 988.7
20260507213010 55 73 0.0 5.0 0.00 0.27 0.26 85 988.4
20260507210011 57 335 3.0 7.0 0.00 0.27 0.26 81 988.3
20260507200013 58 46 0.0 3.0 0.00 0.27 0.26 74 987.8
20260507193012 59 56 1.0 2.0 0.00 0.27 0.26 70 987.1
20260507183009 65 34 5.0 6.0 0.00 0.27 0.26 52 986.7
20260507180009 66 55 2.0 6.0 0.00 0.27 0.26 57 986.3
20260507173009 68 64 3.0 7.0 0.00 0.28 0.26 52 986.2
20260507170010 68 78 5.0 7.0 0.00 0.28 0.26 50 986.0
20260507160010 71 52 2.0 5.0 0.00 0.28 0.26 45 985.7
20260507153009 72 64 3.0 6.0 0.00 0.28 0.26 42 985.9
20260507143008 72 70 3.0 8.0 0.00 0.28 0.26 42 986.0
20260507140012 69 61 5.0 8.0 0.00 0.28 0.26 48 986.4
20260507133011 70 66 2.0 7.0 0.00 0.28 0.26 46 986.6
20260507130015 67 79 4.0 9.0 0.00 0.28 0.26 46 986.8
20260507123009 69 68 1.0 8.0 0.00 0.28 0.26 51 986.9
20260507120011 67 75 2.0 9.0 0.00 0.35 0.26 54 987.1
20260507113008 65 69 2.0 6.0 0.00 0.59 0.26 58 987.3
20260507110009 67 69 3.0 6.0 0.00 0.59 0.26 58 987.5
20260507093011 62 66 3.0 6.0 0.00 0.59 0.26 66 988.1
20260507090011 61 62 1.0 5.0 0.00 0.59 0.26 73 987.9
20260507083007 59 57 1.0 9.0 0.00 0.59 0.26 76 987.7
20260507073013 55 60 3.0 9.0 0.00 0.59 0.26 84 987.8
20260507070014 54 59 5.0 9.0 0.00 0.59 0.26 87 987.6
20260507063007 53 58 3.0 12.0 0.00 0.59 0.26 86 987.5
20260507060011 53 45 6.0 13.0 0.00 0.59 0.26 86 987.2
20260507053008 53 39 7.0 17.0 0.00 0.59 0.26 87 986.9
20260507050009 52 46 8.0 15.0 0.00 0.59 0.26 90 986.6
20260507033007 52 53 5.0 13.0 0.00 0.86 0.26 94 985.9
20260507030007 52 55 5.0 13.0 0.00 0.86 0.26 95 986.0
20260507023006 52 47 6.0 12.0 0.00 0.87 0.26 95 986.0
20260507020009 52 51 4.0 14.0 0.00 0.87 0.26 95 986.1
20260507013006 52 42 7.0 15.0 0.01 0.87 0.26 96 985.9
20260507010006 52 51 4.0 10.0 0.17 0.87 0.26 96 985.8
20260507003007 53 34 5.0 15.0 0.18 0.86 0.25 95 985.7
20260507000011 53 35 7.0 13.0 0.08 0.70 0.09 94 985.8
20260506233014 53 37 8.0 13.0 0.07 0.68 0.07 94 985.7
20260506230012 53 47 6.0 12.0 0.01 0.64 0.01 93 985.5